When you browse on this site, cookies collect data to enhance your experience and personalize the content and advertising you see.
Visit our Privacy Policy to learn more. By continuing to use the site, you agree to this use of cookies and data.
  • In Switzerland
  • List of Countries
  • For 7 days
  • Water Temperature
  • Satellite Maps
  • Weather Map
  • Weather Widgets
  • user-avatar
    Login

    Hourly Weather Bakhtaran

    Today, 10 December, Monday

    Time Temperature Precipitation Wind Pressure Humidity
    00:00 +4°C° 0 mm 0 mps 637 mmHg 86%
    01:00 +4°C° 0 mm 0 mps 636 mmHg 87%
    02:00 +4°C° 0 mm 0 mps 636 mmHg 88%
    03:00 +3°C° 0 mm 0 mps 636 mmHg 90%
    04:00 +3°C° 0 mm 0 mps 636 mmHg 90%
    05:00 +3°C° 0 mm 0 mps 636 mmHg 91%
    06:00 +2°C° 0 mm 0 mps 636 mmHg 91%
    07:00 +4°C° 0 mm 0 mps 636 mmHg 86%
    08:00 +5°C° 0 mm 0 mps 637 mmHg 81%
    09:00 +6°C° 0 mm 0 mps 637 mmHg 77%
    10:00 +8°C° 0 mm 1 mps 637 mmHg 68%
    11:00 +9°C° 0 mm 1 mps 637 mmHg 60%
    12:00 +10°C° 0 mm 1 mps 637 mmHg 51%
    13:00 +10°C° 0 mm 1 mps 637 mmHg 48%
    14:00 +10°C° 0 mm 1 mps 637 mmHg 45%
    15:00 +10°C° 0 mm 2 mps 637 mmHg 42%
    16:00 +10°C° 0 mm 1 mps 637 mmHg 47%
    17:00 +9°C° 0 mm 1 mps 636 mmHg 52%
    18:00 +8°C° 0 mm 1 mps 636 mmHg 56%
    19:00 +7°C° 0 mm 1 mps 636 mmHg 58%
    20:00 +7°C° 0 mm 1 mps 636 mmHg 60%
    21:00 +6°C° 0 mm 1 mps 636 mmHg 62%
    22:00 +6°C° 0 mm 1 mps 636 mmHg 63%
    23:00 +6°C° 0 mm 1 mps 636 mmHg 65%

    Tomorrow, 11 December, Tuesday

    Time Temperature Precipitation Wind Pressure Humidity
    00:00 +5°C° 0 mm 1 mps 636 mmHg 66%
    01:00 +5°C° 0 mm 1 mps 636 mmHg 67%
    02:00 +3°C° 0 mm 0 mps 636 mmHg 68%
    03:00 +3°C° 0 mm 0 mps 636 mmHg 70%
    04:00 +3°C° 0 mm 0 mps 636 mmHg 70%
    05:00 +2°C° 0 mm 0 mps 636 mmHg 71%
    06:00 +2°C° 0 mm 0 mps 636 mmHg 72%
    07:00 +4°C° 0 mm 0 mps 637 mmHg 66%
    08:00 +5°C° 0 mm 0 mps 637 mmHg 60%
    09:00 +6°C° 0 mm 0 mps 638 mmHg 53%
    10:00 +7°C° 0 mm 0 mps 638 mmHg 48%
    11:00 +10°C° 0 mm 1 mps 638 mmHg 42%
    12:00 +11°C° 0 mm 1 mps 639 mmHg 37%
    13:00 +11°C° 0 mm 1 mps 638 mmHg 35%
    14:00 +12°C° 0 mm 1 mps 638 mmHg 33%
    15:00 +12°C° 0 mm 1 mps 638 mmHg 31%
    16:00 +11°C° 0 mm 1 mps 638 mmHg 36%
    17:00 +10°C° 0 mm 1 mps 638 mmHg 41%
    18:00 +8°C° 0 mm 1 mps 638 mmHg 46%
    19:00 +8°C° 0 mm 1 mps 638 mmHg 48%
    20:00 +7°C° 0 mm 1 mps 638 mmHg 49%
    21:00 +7°C° 0 mm 1 mps 638 mmHg 51%
    22:00 +6°C° 0 mm 1 mps 637 mmHg 52%
    23:00 +6°C° 0 mm 1 mps 637 mmHg 53%

    Day after tomorrow, 12 December, Wednesday

    Time Temperature Precipitation Wind Pressure Humidity
    00:00 +5°C° 0 mm 0 mps 637 mmHg 54%
    01:00 +4°C° 0 mm 0 mps 637 mmHg 54%
    02:00 +4°C° 0 mm 0 mps 637 mmHg 55%
    03:00 +4°C° 0 mm 0 mps 637 mmHg 56%
    04:00 +3°C° 0 mm 0 mps 637 mmHg 56%
    05:00 +3°C° 0 mm 0 mps 636 mmHg 56%
    06:00 +3°C° 0 mm 0 mps 636 mmHg 56%
    07:00 +4°C° 0 mm 0 mps 637 mmHg 51%
    08:00 +6°C° 0 mm 0 mps 638 mmHg 45%
    09:00 +9°C° 0 mm 1 mps 639 mmHg 39%
    10:00 +10°C° 0 mm 1 mps 639 mmHg 35%
    11:00 +11°C° 0 mm 1 mps 639 mmHg 30%
    12:00 +13°C° 0 mm 1 mps 639 mmHg 25%
    13:00 +13°C° 0 mm 1 mps 639 mmHg 24%
    14:00 +13°C° 0 mm 2 mps 639 mmHg 23%
    15:00 +14°C° 0 mm 2 mps 639 mmHg 23%
    16:00 +12°C° 0 mm 1 mps 638 mmHg 27%
    17:00 +11°C° 0 mm 1 mps 638 mmHg 31%
    18:00 +9°C° 0 mm 1 mps 638 mmHg 36%
    19:00 +9°C° 0 mm 1 mps 638 mmHg 37%
    20:00 +8°C° 0 mm 1 mps 638 mmHg 39%
    21:00 +8°C° 0 mm 1 mps 638 mmHg 41%
    22:00 +7°C° 0 mm 1 mps 637 mmHg 42%
    23:00 +7°C° 0 mm 1 mps 637 mmHg 44%

    13 December, Thursday

    Time Temperature Precipitation Wind Pressure Humidity
    00:00 +6°C° 0 mm 1 mps 637 mmHg 46%
    01:00 +6°C° 0 mm 1 mps 637 mmHg 48%
    02:00 +5°C° 0 mm 1 mps 637 mmHg 50%
    03:00 +5°C° 0 mm 1 mps 637 mmHg 52%
    04:00 +5°C° 0 mm 1 mps 637 mmHg 54%
    05:00 +4°C° 0 mm 1 mps 637 mmHg 55%
    06:00 +4°C° 0 mm 1 mps 637 mmHg 57%
    07:00 +5°C° 0 mm 1 mps 637 mmHg 52%
    08:00 +7°C° 0 mm 1 mps 638 mmHg 47%
    09:00 +8°C° 0 mm 1 mps 639 mmHg 42%
    10:00 +8°C° 0 mm 2 mps 639 mmHg 40%
    11:00 +10°C° 0 mm 2 mps 639 mmHg 39%
    12:00 +11°C° 0 mm 3 mps 639 mmHg 37%
    13:00 +11°C° 0 mm 3 mps 639 mmHg 39%
    14:00 +11°C° 0 mm 4 mps 639 mmHg 40%
    15:00 +11°C° 0 mm 4 mps 639 mmHg 42%
    16:00 +10°C° 0 mm 3 mps 639 mmHg 48%
    17:00 +9°C° 0 mm 3 mps 638 mmHg 55%
    18:00 +8°C° 0 mm 2 mps 638 mmHg 61%
    19:00 +7°C° 0 mm 2 mps 638 mmHg 64%
    20:00 +7°C° 0 mm 2 mps 638 mmHg 67%
    21:00 +8°C° 0 mm 1 mps 638 mmHg 70%
    22:00 +7°C° 0 mm 1 mps 638 mmHg 72%
    23:00 +7°C° 0 mm 1 mps 638 mmHg 74%

    14 December, Friday

    Time Temperature Precipitation Wind Pressure Humidity
    00:00 +7°C° 0 mm 1 mps 638 mmHg 77%
    01:00 +6°C° 0 mm 1 mps 638 mmHg 78%
    02:00 +6°C° 0 mm 1 mps 638 mmHg 80%
    03:00 +6°C° 0 mm 1 mps 638 mmHg 81%
    04:00 +6°C° 0 mm 1 mps 638 mmHg 82%
    05:00 +6°C° 0 mm 1 mps 638 mmHg 83%
    06:00 +6°C° 0 mm 1 mps 638 mmHg 83%
    07:00 +5°C° 0 mm 2 mps 639 mmHg 79%
    08:00 +6°C° 0 mm 2 mps 639 mmHg 75%
    09:00 +7°C° 0 mm 2 mps 640 mmHg 72%
    10:00 +8°C° 0 mm 2 mps 640 mmHg 66%
    11:00 +9°C° 0 mm 2 mps 640 mmHg 60%
    12:00 +10°C° 0 mm 3 mps 640 mmHg 54%
    13:00 +10°C° 0 mm 3 mps 640 mmHg 52%
    14:00 +11°C° 0 mm 3 mps 640 mmHg 50%
    15:00 +11°C° 0 mm 3 mps 639 mmHg 48%
    16:00 +10°C° 0 mm 3 mps 639 mmHg 52%
    17:00 +9°C° 0 mm 2 mps 639 mmHg 56%
    18:00 +9°C° 0 mm 1 mps 639 mmHg 60%
    19:00 +8°C° 0 mm 1 mps 639 mmHg 63%
    20:00 +8°C° 0 mm 1 mps 639 mmHg 66%
    21:00 +7°C° 0 mm 1 mps 639 mmHg 69%
    22:00 +6°C° 0 mm 1 mps 639 mmHg 71%
    23:00 +6°C° 0 mm 1 mps 639 mmHg 73%

    15 December, Saturday

    Time Temperature Precipitation Wind Pressure Humidity
    00:00 +6°C° 0 mm 1 mps 639 mmHg 74%
    01:00 +5°C° 0 mm 1 mps 639 mmHg 75%
    02:00 +5°C° 0 mm 1 mps 638 mmHg 76%
    03:00 +4°C° 0 mm 1 mps 638 mmHg 77%
    04:00 +3°C° 0 mm 0 mps 638 mmHg 78%
    05:00 +3°C° 0 mm 0 mps 638 mmHg 78%
    06:00 +3°C° 0 mm 0 mps 638 mmHg 79%
    07:00 +4°C° 0 mm 0 mps 639 mmHg 73%
    08:00 +5°C° 0 mm 0 mps 639 mmHg 67%
    09:00 +7°C° 0 mm 1 mps 640 mmHg 61%
    10:00 +8°C° 0 mm 1 mps 640 mmHg 56%
    11:00 +9°C° 0 mm 1 mps 640 mmHg 50%
    12:00 +10°C° 0 mm 1 mps 640 mmHg 44%
    13:00 +11°C° 0 mm 1 mps 640 mmHg 42%
    14:00 +11°C° 0 mm 1 mps 639 mmHg 40%
    15:00 +10°C° 0 mm 2 mps 639 mmHg 38%
    16:00 +10°C° 0 mm 1 mps 639 mmHg 42%
    17:00 +9°C° 0 mm 1 mps 639 mmHg 46%
    18:00 +8°C° 0 mm 1 mps 639 mmHg 51%
    19:00 +7°C° 0 mm 1 mps 639 mmHg 52%
    20:00 +6°C° 0 mm 0 mps 639 mmHg 54%
    21:00 +5°C° 0 mm 0 mps 639 mmHg 56%
    22:00 +5°C° 0 mm 0 mps 638 mmHg 57%
    23:00 +4°C° 0 mm 0 mps 638 mmHg 58%
    Show more